This demonstration page uses our WeatherBlox Daily Observations layout. Learn more.

Left ArrowRight Arrow

39.51506, -84.39828

Hourly Observations for March 4, 2015

Temp ( °F °C ) Dew Point ( °F °C ) Humidity (%) Winds ( mph kmh ) Pressure ( in mb ) Visibility ( mi km ) Precip ( " mm )
12:15 am 00:15 Cloudy 39 4 36 2 87 87 WNW 7 11 29.88 1012 7 11 N/A
12:35 am 00:35 Cloudy with Light Snow 39 4 36 2 87 87 W 5 7 29.88 1012 7 11 N/A
12:55 am 00:55 Cloudy with Light Snow 39 4 36 2 87 87 W 5 7 29.88 1012 5 8 N/A
1:15 am 01:15 Cloudy with Light Snow 39 4 36 2 87 87 N N/A 29.88 1012 4 6 N/A
1:35 am 01:35 Cloudy with Light Snow 39 4 36 2 87 87 NW 6 9 29.91 1013 3 5 N/A
1:55 am 01:55 Cloudy with Light Snow 39 4 36 2 87 87 NNW 3 6 29.88 1012 2 3 N/A
2:15 am 02:15 Cloudy with Light Snow 39 4 36 2 87 87 N N/A 29.91 1013 3 5 N/A
2:35 am 02:35 Cloudy with Light Snow 39 4 36 2.1 88 88 N N/A 29.91 1013 2 3 N/A
2:55 am 02:55 Cloudy with Light Snow 37 2.9 34 1.1 88 88 N N/A 29.91 1013 2 3 N/A
3:15 am 03:15 Cloudy with Light Snow 38 3.3 35 1.5 88 88 N N/A 29.91 1013 4 6 N/A
3:35 am 03:35 Cloudy with Light Snow 37 2.9 34 1 87 87 W 3 6 29.91 1013 3 5 N/A
3:55 am 03:55 Cloudy with Light Snow 37 2.7 33 0.7 87 87 N N/A 29.88 1012 3 4 N/A
4:15 am 04:15 Cloudy with Light Snow 37 2.6 33 0.7 87 87 N N/A 29.88 1012 3 5 N/A
4:35 am 04:35 Cloudy with Mist and Fog 37 2.6 33 0.7 87 87 SW 3 6 29.91 1013 3 5 N/A
4:55 am 04:55 Cloudy with Light Snow 37 2.6 33 0.8 88 88 N N/A 29.91 1013 4 6 N/A
5:15 am 05:15 Cloudy with Mist and Fog 37 2.6 33 0.8 88 88 N N/A 29.91 1013 3 4 N/A
5:35 am 05:35 Cloudy with Mist and Fog 36 2.2 33 0.4 88 88 N N/A 29.97 1015 3 4 N/A
5:55 am 05:55 Cloudy with Light Snow 37 2.6 34 1 89 89 N N/A 29.94 1014 3 5 N/A
6:15 am 06:15 Cloudy with Light Snow 37 2.6 34 1 89 89 N N/A 29.94 1014 3 5 N/A
6:35 am 06:35 Cloudy with Light Snow 37 2.6 34 1 89 89 N N/A 29.94 1014 4 6 N/A
6:55 am 06:55 Cloudy with Mist and Fog 37 2.5 34 0.9 89 89 N N/A 29.94 1014 5 8 N/A
7:15 am 07:15 Cloudy with Mist and Fog 37 2.5 33 0.8 89 89 SW 3 6 29.94 1014 5 8 N/A
7:35 am 07:35 Cloudy with Mist and Fog 36 2 33 0.3 89 89 N N/A 30.00 1016 3 5 N/A
7:55 am 07:55 Cloudy with Mist and Fog 36 2 32 0.2 88 88 N N/A 30.00 1016 4 6 N/A
8:15 am 08:15 Cloudy 37 2.6 34 1 89 89 NW 5 7 30.00 1016 7 11 N/A
8:35 am 08:35 Cloudy with Mist and Fog 37 2.6 33 0.8 88 88 WNW 5 7 30.03 1017 5 8 N/A
8:55 am 08:55 Cloudy with Mist and Fog 37 2.6 33 0.7 87 87 WNW 6 9 30.03 1017 5 8 N/A
9:15 am 09:15 Partly Cloudy with Mist and Fog 37 2.6 33 0.6 87 87 NW 6 9 30.03 1017 5 8 N/A
9:35 am 09:35 Partly Cloudy 37 2.6 33 0.3 85 85 WNW 7 11 30.03 1017 7 11 N/A
9:55 am 09:55 Mostly Cloudy 37 2.6 32 0.1 84 84 NNW 5 7 30.03 1017 10 16 N/A
10:15 am 10:15 Mostly Cloudy 37 2.6 32 undefined 83 83 NNW 6 9 30.03 1017 7 11 N/A
10:35 am 10:35 Mostly Cloudy 37 2.6 32 undefined 83 83 N 6 9 30.03 1017 7 11 N/A
10:55 am 10:55 Cloudy 37 2.6 32 -0.2 82 82 N 3 6 30.03 1017 7 11 N/A
11:15 am 11:15 Cloudy 37 2.6 31 -0.5 80 80 N 5 7 30.03 1017 10 16 N/A
11:35 am 11:35 Cloudy 37 2.6 31 -0.7 79 79 N 6 9 30.03 1017 10 16 N/A
12:00 pm 12:00 Cloudy 37 2.6 30 -1.1 77 77 NNW 6 9 30.06 1018 10 16 N/A
12:15 pm 12:15 Cloudy N/A N/A N/A undefined N/A N/A N/A N/A
12:35 pm 12:35 Cloudy 37 2.8 30 -1.3 75 75 NNW 6 9 30.06 1018 10 16 N/A
12:55 pm 12:55 Cloudy 37 2.6 29 -1.6 74 74 NW 7 11 30.06 1018 10 16 N/A
1:15 pm 13:15 Cloudy 37 2.6 29 -1.5 75 75 NW 3 6 30.06 1018 10 16 N/A
1:35 pm 13:35 Cloudy 37 2.6 29 -1.4 75 75 NNW 5 7 30.06 1018 10 16 N/A
2:15 pm 14:15 Cloudy 37 2.6 28 -2.1 71 71 NW 6 9 30.06 1018 10 16 N/A
2:35 pm 14:35 Cloudy 37 2.6 28 -2 72 72 NNW 5 7 30.06 1018 10 16 N/A
2:55 pm 14:55 Cloudy 37 2.6 28 -2 72 72 NW 8 13 30.06 1018 10 16 N/A
3:15 pm 15:15 Cloudy 37 2.6 29 -1.8 73 73 NW 13 20 30.06 1018 7 11 N/A
3:35 pm 15:35 Cloudy with Light Snow 37 2.6 29 -1.6 74 74 NW 8 13 30.06 1018 3 4 N/A
3:55 pm 15:55 Cloudy with Light Snow N/A N/A N/A N 6 9 N/A N/A N/A
4:15 pm 16:15 Cloudy with Light Snow 35 1.8 30 -1.1 81 81 NNW 6 9 30.03 1017 N/A N/A
4:35 pm 16:35 Cloudy N/A N/A N/A undefined N/A N/A N/A N/A
4:55 pm 16:55 Cloudy with Light Rain 37 2.6 29 -1.8 73 73 NNW 8 13 30.09 1019 5 8 N/A
5:15 pm 17:15 Cloudy with Light Snow 35 1.4 27 -2.7 74 74 undefined N/A 30.09 1019 2 3 N/A
5:35 pm 17:35 Cloudy with Light Snow 34 1.2 29 -1.8 81 81 N 10 17 30.09 1019 1 2 N/A
5:55 pm 17:55 Cloudy with Light Snow 34 1.2 29 -1.6 82 82 NNW 12 19 30.09 1019 1 2 N/A
6:15 pm 18:15 Cloudy with Light Snow N/A N/A N/A undefined N/A N/A 1 1 N/A
6:35 pm 18:35 Cloudy with Light Snow 32 undefined 27 -2.6 83 83 undefined N/A 30.15 1021 1 2 N/A
6:55 pm 18:55 Cloudy with Light Snow 31 -0.4 27 -2.8 84 84 N 8 13 30.15 1021 1 2 N/A
7:15 pm 19:15 Cloudy 29 -1.5 25 -4 83 83 undefined N/A N/A 2 3 N/A
7:35 pm 19:35 Cloudy N/A N/A N/A undefined N/A N/A 2 3 N/A
7:55 pm 19:55 Cloudy N/A N/A N/A undefined N/A N/A N/A N/A
8:15 pm 20:15 undefined N/A N/A N/A undefined N/A N/A N/A N/A
8:35 pm 20:35 Cloudy with Light Snow 29 -1.5 24 -4.2 82 82 NNW 9 15 30.21 1023 3 4 N/A
8:55 pm 20:55 Cloudy with Light Snow 29 -1.5 22 -5.5 74 74 NNW 9 15 30.21 1023 5 8 N/A
9:15 pm 21:15 Cloudy with Light Snow 29 -1.5 24 -4.6 80 80 NNW 8 13 30.24 1024 2 3 N/A
9:35 pm 21:35 Cloudy 29 -1.5 22 -5.7 73 73 N 12 19 30.24 1024 7 11 N/A
9:55 pm 21:55 Cloudy 29 -1.5 16 -8.7 58 58 NNW 12 19 30.24 1024 10 16 N/A
10:15 pm 22:15 Cloudy 29 -1.5 17 -8.5 59 59 NNW 8 13 30.24 1024 10 16 N/A
10:35 pm 22:35 Cloudy 28 -2.5 16 -9.1 61 61 N 9 15 30.27 1025 10 16 N/A
10:55 pm 22:55 Cloudy 27 -2.8 13 -10.4 56 56 N 12 19 30.27 1025 10 16 N/A
11:15 pm 23:15 Cloudy 27 -2.8 10 -12.4 48 48 N 10 17 30.27 1025 10 16 N/A
11:35 pm 23:35 Cloudy 26 -3.6 11 -11.8 53 53 N 13 20 30.27 1025 10 16 N/A
11:55 pm 23:55 Cloudy 24 -4.2 11 -11.4 58 58 N 9 15 30.30 1026 10 16 N/A

Powered by AerisWeather